period_start,C,m1,H,J0,J1,J2,J3,J4,J5,JA,JB,JC,JD,JJ,JK,JN,#
2017-01-27 00:02:01,0.39,7.33,0.00,19.18,23.27,26.87,14.58,53.32,1000.01,2042.90,1667.52,1676.01,1897.47,599.71,593.65,19.98,0000 0000 0000 0000 000000
2017-01-27 00:07:02,0.36,7.35,0.00,19.16,23.24,26.78,14.54,53.04,1000.24,2042.97,1664.69,1674.03,1895.09,599.98,594.10,20.03,0000 0000 0000 0000 000000
2017-01-27 00:12:03,0.35,7.37,0.00,19.11,23.21,26.69,14.66,53.08,1000.50,2042.98,1662.20,1671.99,1892.64,600.03,594.45,20.08,0000 0000 0000 0000 000000
2017-01-27 00:17:04,0.30,7.39,0.00,19.08,23.19,26.66,14.59,52.66,1000.63,2042.99,1659.87,1670.30,1890.61,599.79,594.46,20.13,0000 0000 0000 0000 000000
2017-01-27 00:22:06,0.33,7.40,0.00,19.07,23.16,26.64,14.67,52.88,1000.92,2042.99,1657.38,1668.39,1888.46,600.40,595.04,20.18,0000 0000 0000 0000 000000
2017-01-27 00:27:07,0.34,7.42,0.00,19.04,23.13,26.63,14.69,52.92,1000.99,2042.99,1654.97,1666.51,1886.20,600.06,594.91,20.23,0000 0000 0000 0000 000000
2017-01-27 00:32:08,0.33,7.44,0.00,19.03,23.11,26.57,14.64,52.70,1001.00,2043.00,1652.51,1664.62,1884.07,600.07,594.97,20.28,0000 0000 0000 0000 000000
2017-01-27 00:37:09,0.26,7.45,0.00,19.02,23.08,26.51,14.60,52.62,1001.07,2043.02,1650.30,1663.07,1882.08,599.71,594.59,20.33,0000 0000 0000 0000 000000
2017-01-27 00:42:11,0.33,7.47,0.00,19.02,23.05,26.51,14.58,52.63,1001.03,2043.03,1648.06,1661.53,1879.99,600.32,595.22,20.38,0000 0000 0000 0000 000000
2017-01-27 00:47:12,0.33,7.48,0.00,19.00,23.03,26.43,14.62,52.75,1001.14,2043.11,1645.68,1659.74,1877.86,599.78,594.89,20.43,0000 0000 0000 0000 000000
2017-01-27 00:52:13,0.35,7.50,0.00,19.01,23.00,26.48,14.64,52.76,1001.33,2043.37,1643.36,1658.02,1875.96,600.13,595.16,20.48,0000 0000 0000 0000 000000
2017-01-27 00:57:15,0.33,7.52,0.00,19.01,22.98,26.43,14.57,52.97,1001.36,2043.70,1641.10,1656.30,1874.00,599.70,594.78,20.53,0000 0000 0000 0000 000000
2017-01-27 01:02:16,0.37,7.54,0.00,19.02,22.95,26.39,14.59,52.93,1001.32,2043.85,1638.60,1654.50,1871.86,599.89,594.95,20.58,0000 0000 0000 0000 000000
2017-01-27 01:07:18,0.32,7.55,0.00,18.99,22.93,26.34,14.56,53.05,1001.30,2043.97,1636.33,1652.82,1869.89,599.77,594.91,20.63,0000 0000 0000 0000 000000
2017-01-27 01:12:19,0.32,7.57,0.00,18.99,22.90,26.41,14.68,53.00,1001.44,2043.98,1634.09,1651.13,1867.97,600.00,595.10,20.68,0000 0000 0000 0000 000000
2017-01-27 01:17:20,0.31,7.59,0.00,18.98,22.88,26.31,14.60,52.91,1001.48,2043.99,1631.70,1649.31,1865.88,599.90,595.17,20.73,0000 0000 0000 0000 000000
2017-01-27 01:22:22,0.30,7.60,0.00,18.96,22.86,26.36,14.62,52.84,1001.48,2043.99,1629.44,1647.69,1864.06,600.00,595.36,20.78,0000 0000 0000 0000 000000
2017-01-27 01:27:23,0.36,7.62,0.00,18.96,22.84,26.36,14.65,52.86,1001.46,2043.99,1627.06,1645.80,1861.89,600.19,595.50,20.83,0000 0000 0000 0000 000000
2017-01-27 01:32:24,0.28,7.63,0.00,18.94,22.82,26.37,14.57,52.73,1001.41,2043.99,1624.85,1644.24,1859.94,600.04,595.34,20.88,0000 0000 0000 0000 000000
2017-01-27 01:37:25,0.29,7.65,0.00,18.94,22.80,26.33,14.60,52.88,1001.39,2044.01,1622.71,1642.64,1858.18,599.75,594.96,20.93,0000 0000 0000 0000 000000
2017-01-27 01:42:27,0.27,7.66,0.00,18.94,22.78,26.32,14.64,52.66,1001.48,2044.04,1620.65,1641.10,1856.42,600.31,595.66,20.98,0000 0000 0000 0000 000000
2017-01-27 01:47:28,0.30,7.68,0.00,18.92,22.76,26.26,14.61,52.65,1001.48,2044.05,1618.52,1639.58,1854.68,600.12,595.50,21.03,0000 0000 0000 0000 000000
2017-01-27 01:52:29,0.30,7.69,0.00,18.94,22.74,26.24,14.62,52.55,1001.49,2044.11,1616.29,1638.00,1852.94,600.05,595.42,21.08,0000 0000 0000 0000 000000
2017-01-27 01:57:31,0.32,7.71,0.00,18.94,22.72,26.26,14.64,52.64,1001.57,2044.42,1614.17,1636.59,1851.19,600.29,595.58,21.14,0000 0000 0000 0000 000000
2017-01-27 02:02:32,0.35,7.73,0.00,18.97,22.71,26.20,14.57,52.67,1001.57,2044.77,1612.03,1634.96,1849.33,599.82,595.04,21.19,0000 0000 0000 0000 000000
2017-01-27 02:07:33,0.29,7.74,0.00,18.97,22.69,26.24,14.65,52.74,1001.52,2044.87,1609.89,1633.43,1847.47,600.12,595.38,21.24,0000 0000 0000 0000 000000
2017-01-27 02:12:35,0.31,7.76,0.00,18.95,22.68,26.22,14.63,52.75,1001.48,2044.90,1607.73,1631.82,1845.58,600.13,595.49,21.29,0000 0000 0000 0000 000000
2017-01-27 02:17:36,0.29,7.77,0.00,18.97,22.67,26.22,14.69,52.67,1001.48,2044.96,1605.62,1630.27,1843.74,600.36,595.58,21.34,0000 0000 0000 0000 000000
2017-01-27 02:22:37,0.29,7.79,0.00,18.98,22.65,26.20,14.60,52.76,1001.47,2044.96,1603.58,1628.69,1841.94,599.89,595.19,21.39,0000 0000 0000 0000 000000
2017-01-27 02:27:38,0.27,7.80,0.00,18.99,22.64,26.17,14.61,52.70,1001.45,2044.97,1601.50,1627.24,1840.18,599.99,595.21,21.44,0000 0000 0000 0000 000000
2017-01-27 02:32:39,0.31,7.82,0.00,19.00,22.63,26.20,14.63,52.85,1001.45,2044.98,1599.35,1625.60,1838.26,600.37,595.50,21.49,0000 0000 0000 0000 000000
2017-01-27 02:37:41,0.29,7.83,0.00,19.02,22.62,26.19,14.63,52.76,1001.46,2044.99,1597.28,1623.96,1836.38,600.08,595.22,21.54,0000 0000 0000 0000 000000
2017-01-27 02:42:42,0.29,7.85,0.00,19.02,22.62,26.20,14.64,52.62,1001.47,2044.99,1595.19,1622.37,1834.58,600.07,595.17,21.59,0000 0000 0000 0000 000000
2017-01-27 02:47:43,0.31,7.86,0.00,19.02,22.61,26.22,14.60,52.83,1001.47,2044.99,1593.00,1620.75,1832.74,600.12,595.26,21.64,0000 0000 0000 0000 000000
2017-01-27 02:52:45,0.32,7.88,0.00,19.05,22.60,26.21,14.59,52.72,1001.26,2044.99,1590.74,1619.10,1830.70,600.22,595.16,21.69,0000 0000 0000 0000 000000
2017-01-27 02:57:46,0.30,7.89,0.00,19.04,22.59,26.16,14.58,52.62,1001.22,2044.99,1588.63,1617.47,1828.80,599.97,594.88,21.74,0000 0000 0000 0000 000000
2017-01-27 03:02:48,0.31,7.91,0.00,19.05,22.59,26.18,14.55,52.65,1001.40,2044.99,1586.46,1615.80,1826.89,600.19,595.18,21.79,0000 0000 0000 0000 000000
2017-01-27 03:07:49,0.28,7.93,0.00,19.07,22.59,26.15,14.56,52.73,1001.33,2044.99,1584.38,1614.30,1825.09,600.15,595.08,21.84,0000 0000 0000 0000 000000
2017-01-27 03:12:50,0.30,7.94,0.00,19.06,22.59,26.18,14.58,52.55,1001.47,2044.99,1582.34,1612.73,1823.29,599.97,595.08,21.89,0000 0000 0000 0000 000000
2017-01-27 03:17:51,0.29,7.96,0.00,19.06,22.59,26.21,14.66,52.66,1001.45,2044.99,1580.23,1611.20,1821.41,600.05,595.12,21.94,0000 0000 0000 0000 000000
2017-01-27 03:22:52,0.30,7.97,0.00,19.06,22.59,26.18,14.60,52.74,1001.45,2044.99,1578.20,1609.61,1819.67,599.94,595.07,21.99,0000 0000 0000 0000 000000
2017-01-27 03:27:54,0.30,7.99,0.00,19.06,22.59,26.20,14.54,52.52,1001.48,2044.99,1576.17,1607.93,1817.79,599.50,594.65,22.04,0000 0000 0000 0000 000000
2017-01-27 03:32:55,0.29,8.00,0.00,19.06,22.59,26.19,14.57,52.35,1001.48,2044.99,1574.10,1606.37,1815.88,600.10,595.17,22.09,0000 0000 0000 0000 000000
2017-01-27 03:37:56,0.27,8.02,0.00,19.06,22.59,26.21,14.57,52.44,1001.48,2045.00,1572.14,1604.93,1814.28,599.96,595.03,22.14,0000 0000 0000 0000 000000
2017-01-27 03:42:58,0.30,8.03,0.00,19.08,22.59,26.22,14.53,52.48,1001.49,2045.00,1570.10,1603.48,1812.56,599.87,594.87,22.19,0000 0000 0000 0000 000000
2017-01-27 03:47:59,0.31,8.04,0.00,19.09,22.59,26.22,14.59,52.70,1001.24,2045.00,1568.00,1601.87,1810.74,600.01,594.97,22.24,0000 0000 0000 0000 000000
2017-01-27 03:53:00,0.29,8.06,0.00,19.09,22.59,26.17,14.61,52.82,1001.30,2045.00,1565.85,1600.35,1808.89,600.05,594.96,22.29,0000 0000 0000 0000 000000
2017-01-27 03:58:01,0.29,8.07,0.00,19.11,22.59,26.21,14.64,52.70,1001.47,2045.00,1563.69,1598.90,1807.16,600.36,595.29,22.34,0000 0000 0000 0000 000000
2017-01-27 04:03:02,0.32,8.09,0.00,19.13,22.59,26.23,14.60,52.52,1001.53,2045.00,1561.45,1597.39,1805.21,600.22,595.15,22.39,0000 0000 0000 0000 000000
2017-01-27 04:08:04,0.29,8.11,0.00,19.13,22.59,26.31,14.61,52.49,1001.80,2045.00,1559.33,1595.85,1803.41,600.11,595.28,22.44,0000 0000 0000 0000 000000
2017-01-27 04:13:05,0.28,8.12,0.00,19.12,22.59,26.28,14.56,52.70,1001.69,2045.00,1557.38,1594.51,1801.72,599.70,594.79,22.49,0000 0000 0000 0000 000000
2017-01-27 04:18:06,0.29,8.14,0.00,19.13,22.59,26.24,14.57,52.61,1001.60,2044.99,1555.37,1592.92,1799.93,599.78,594.76,22.54,0000 0000 0000 0000 000000
2017-01-27 04:23:07,0.31,8.15,0.00,19.13,22.60,26.19,14.57,52.57,1001.56,2044.98,1553.22,1591.44,1798.08,599.71,594.65,22.59,0000 0000 0000 0000 000000
2017-01-27 04:28:08,0.25,8.16,0.00,19.16,22.61,26.22,14.50,52.48,1001.72,2044.98,1551.29,1590.09,1796.51,599.92,594.89,22.64,0000 0000 0000 0000 000000
2017-01-27 04:33:09,0.33,8.18,0.00,19.13,22.62,26.26,14.63,52.53,1001.97,2044.97,1549.21,1588.57,1794.67,600.10,595.36,22.69,0000 0000 0000 0000 000000
2017-01-27 04:38:11,0.30,8.20,0.00,19.15,22.62,26.21,14.59,52.46,1001.97,2044.97,1547.10,1587.05,1792.84,599.94,595.12,22.74,0000 0000 0000 0000 000000
2017-01-27 04:43:12,0.28,8.21,0.00,19.18,22.62,26.27,14.54,52.43,1001.97,2044.96,1545.13,1585.58,1791.20,599.77,594.90,22.79,0000 0000 0000 0000 000000
2017-01-27 04:48:13,0.28,8.22,0.00,19.19,22.63,26.26,14.57,52.19,1001.97,2044.95,1543.08,1584.07,1789.49,599.81,594.98,22.84,0000 0000 0000 0000 000000
2017-01-27 04:53:14,0.27,8.24,0.00,19.21,22.64,26.35,14.56,52.17,1001.97,2044.97,1541.32,1582.73,1787.89,599.36,594.40,22.89,0000 0000 0000 0000 000000
2017-01-27 04:58:16,0.26,8.25,0.00,19.21,22.64,26.32,14.54,52.21,1001.92,2044.94,1539.42,1581.42,1786.30,599.85,594.88,22.94,0000 0000 0000 0000 000000
2017-01-27 05:03:17,0.26,8.26,0.00,19.24,22.66,26.32,14.53,52.25,1001.87,2044.86,1537.54,1579.99,1784.67,600.06,595.03,22.99,0000 0000 0000 0000 000000
2017-01-27 05:08:19,0.27,8.28,0.00,19.25,22.67,26.36,14.63,52.33,1001.81,2044.72,1535.65,1578.67,1783.04,600.31,595.15,23.04,0000 0000 0000 0000 000000
2017-01-27 05:13:20,0.23,8.29,0.00,19.27,22.67,26.37,14.59,52.42,1001.91,2044.46,1533.85,1577.25,1781.35,599.51,594.38,23.09,0000 0000 0000 0000 000000
2017-01-27 05:18:22,0.27,8.30,0.00,19.26,22.69,26.45,14.61,52.44,1001.93,2044.30,1531.99,1575.77,1779.66,600.29,595.19,23.14,0000 0000 0000 0000 000000
2017-01-27 05:23:23,0.27,8.32,0.00,19.29,22.69,26.46,14.62,52.37,1001.97,2044.18,1530.05,1574.31,1777.89,599.97,594.94,23.19,0000 0000 0000 0000 000000
2017-01-27 05:28:24,0.25,8.33,0.00,19.29,22.71,26.39,14.53,52.13,1001.99,2044.08,1528.17,1572.86,1776.32,599.96,594.96,23.24,0000 0000 0000 0000 000000
2017-01-27 05:33:26,0.28,8.34,0.00,19.32,22.72,26.43,14.58,52.37,1002.08,2044.07,1526.31,1571.51,1774.71,600.28,595.19,23.29,0000 0000 0000 0000 000000
2017-01-27 05:38:27,0.28,8.36,0.00,19.35,22.73,26.46,14.64,52.63,1001.99,2044.02,1524.25,1570.02,1772.93,600.28,595.04,23.34,0000 0000 0000 0000 000000
2017-01-27 05:43:29,0.29,8.37,0.00,19.36,22.74,26.45,14.58,52.42,1001.97,2044.03,1522.27,1568.62,1771.24,600.07,594.81,23.39,0000 0000 0000 0000 000000
2017-01-27 05:48:30,0.28,8.39,0.00,19.38,22.75,26.47,14.58,52.69,1001.90,2044.00,1520.37,1567.18,1769.58,599.96,594.75,23.44,0000 0000 0000 0000 000000
2017-01-27 05:53:31,0.30,8.40,0.00,19.40,22.77,26.52,14.58,52.60,1001.63,2044.00,1518.33,1565.69,1767.95,600.04,594.48,23.49,0000 0000 0000 0000 000000
2017-01-27 05:58:32,0.28,8.42,0.00,19.42,22.78,26.53,14.55,52.70,1001.63,2044.00,1516.42,1564.30,1766.28,600.08,594.49,23.54,0000 0000 0000 0000 000000
2017-01-27 06:03:34,0.28,8.43,0.00,19.45,22.79,26.54,14.61,52.78,1001.66,2044.00,1514.50,1562.88,1764.59,600.22,594.59,23.59,0000 0000 0000 0000 000000
2017-01-27 06:08:35,0.29,8.44,0.00,19.44,22.81,26.56,14.56,52.73,1001.84,2044.00,1512.61,1561.56,1762.97,600.01,594.51,23.64,0000 0000 0000 0000 000000
2017-01-27 06:13:36,0.28,8.46,0.00,19.43,22.82,26.56,14.60,52.68,1001.92,2044.00,1510.63,1560.18,1761.32,600.07,594.65,23.69,0000 0000 0000 0000 000000
2017-01-27 06:18:37,0.29,8.47,0.00,19.43,22.83,26.52,14.60,52.58,1001.97,2043.99,1508.76,1558.74,1759.66,600.06,594.75,23.74,0000 0000 0000 0000 000000
2017-01-27 06:23:39,0.30,8.49,0.00,19.45,22.84,26.59,14.53,52.40,1001.98,2043.99,1506.81,1557.30,1757.81,599.99,594.53,23.79,0000 0000 0000 0000 000000
2017-01-27 06:28:40,0.29,8.50,0.00,19.44,22.85,26.62,14.56,52.52,1001.98,2043.99,1505.02,1555.73,1756.16,600.20,594.80,23.84,0000 0000 0000 0000 000000
2017-01-27 06:33:41,0.27,8.52,0.00,19.45,22.87,26.65,14.59,52.64,1001.97,2043.99,1503.15,1554.34,1754.50,599.87,594.49,23.89,0000 0000 0000 0000 000000
2017-01-27 06:38:43,0.28,8.53,0.00,19.46,22.87,26.56,14.54,52.52,1001.97,2043.99,1501.14,1552.94,1752.89,599.79,594.38,23.94,0000 0000 0000 0000 000000
2017-01-27 06:43:44,0.30,8.55,0.00,19.48,22.89,26.61,14.52,52.78,1001.90,2043.98,1499.10,1551.60,1751.25,599.55,593.94,23.99,0000 0000 0000 0000 000000
2017-01-27 06:48:46,0.29,8.56,0.00,19.48,22.89,26.58,14.55,53.00,1001.54,2043.98,1497.10,1550.16,1749.53,600.05,594.32,24.04,0000 0000 0000 0000 000000
2017-01-27 06:53:47,0.31,8.58,0.00,19.47,22.90,26.61,14.55,53.08,1001.51,2043.96,1495.23,1548.67,1747.75,600.09,594.35,24.09,0000 0000 0000 0000 000000
2017-01-27 06:58:48,0.29,8.59,0.00,19.46,22.92,26.69,14.55,53.10,1001.48,2043.95,1493.09,1547.26,1746.05,600.09,594.47,24.15,0000 0000 0000 0000 000000
2017-01-27 07:03:49,0.31,8.61,0.00,19.46,22.92,26.64,14.50,53.02,1001.47,2043.92,1491.18,1545.70,1744.30,600.01,594.35,24.20,0000 0000 0000 0000 000000
2017-01-27 07:08:51,0.31,8.62,0.00,19.48,22.94,26.68,14.60,53.30,1001.44,2043.88,1489.04,1544.27,1742.48,600.01,594.33,24.25,0000 0000 0000 0000 000000
2017-01-27 07:13:52,0.29,8.64,0.00,19.47,22.95,26.69,14.54,53.19,1001.48,2043.77,1487.03,1542.73,1740.77,599.87,594.08,24.30,0000 0000 0000 0000 000000
2017-01-27 07:18:53,0.31,8.66,0.00,19.45,22.96,26.71,14.63,53.21,1001.42,2043.75,1485.02,1541.19,1739.06,599.80,594.14,24.35,0000 0000 0000 0000 000000
2017-01-27 07:23:55,0.30,8.67,0.00,19.45,22.97,26.69,14.61,53.06,1001.41,2043.66,1483.03,1539.61,1737.32,600.31,594.56,24.40,0000 0000 0000 0000 000000
2017-01-27 07:28:56,0.23,8.69,0.00,19.45,22.98,26.73,14.60,53.18,1001.43,2043.46,1481.23,1538.30,1735.76,600.55,594.76,24.45,0000 0000 0000 0000 000000
2017-01-27 07:33:57,0.26,8.70,0.00,19.44,22.99,26.72,14.53,52.90,1001.48,2043.31,1479.55,1536.95,1734.10,599.99,594.29,24.50,0000 0000 0000 0000 000000
2017-01-27 07:38:58,0.28,8.71,0.00,19.45,23.00,26.75,14.63,52.73,1001.88,2043.15,1477.77,1535.60,1732.43,600.08,594.63,24.55,0000 0000 0000 0000 000000
2017-01-27 07:44:00,0.23,8.73,0.00,19.44,23.01,26.74,14.54,52.64,1002.31,2043.04,1476.12,1534.39,1730.88,599.78,594.67,24.60,0000 0000 0000 0000 000000
2017-01-27 07:49:01,0.25,8.74,0.00,19.46,23.02,26.72,14.55,52.52,1002.86,2043.02,1474.42,1533.20,1729.47,600.00,595.15,24.65,0000 0000 0000 0000 000000
2017-01-27 07:54:03,0.27,8.75,0.00,19.47,23.02,26.74,14.60,52.65,1003.42,2043.01,1472.65,1531.90,1727.96,600.04,595.35,24.70,0000 0000 0000 0000 000000
2017-01-27 07:59:04,0.27,8.76,0.00,19.47,23.04,26.75,14.63,53.06,1003.43,2043.00,1470.89,1530.62,1726.60,599.87,595.25,24.75,0000 0000 0000 0000 000000
2017-01-27 08:04:05,0.26,8.78,0.00,19.49,23.04,26.74,14.62,53.22,1003.43,2043.00,1469.14,1529.29,1725.13,600.01,595.37,24.80,0000 0000 0000 0000 000000
2017-01-27 08:09:07,0.33,8.79,0.00,19.48,23.05,26.71,14.59,53.21,1002.98,2043.00,1467.16,1527.69,1723.40,599.67,594.76,24.85,0000 0000 0000 0000 000000
2017-01-27 08:14:08,0.30,8.81,0.00,19.47,23.06,26.71,14.63,52.86,1002.24,2043.00,1465.10,1526.31,1721.74,600.23,594.87,24.90,0000 0000 0000 0000 000000
2017-01-27 08:19:09,0.28,8.82,0.00,19.46,23.07,26.74,14.62,53.35,1001.96,2043.00,1463.27,1525.11,1720.11,600.15,594.61,24.95,0000 0000 0000 0000 000000
2017-01-27 08:24:10,0.34,8.84,0.00,19.46,23.07,26.75,14.56,52.96,1002.24,2043.00,1461.13,1523.58,1718.20,599.96,594.67,25.00,0000 0000 0000 0000 000000
2017-01-27 08:29:11,0.29,8.86,0.00,19.47,23.07,26.73,14.59,52.94,1003.06,2043.00,1459.26,1522.00,1716.50,600.29,595.46,25.05,0000 0000 0000 0000 000000
2017-01-27 08:34:13,0.29,8.87,0.00,19.46,23.09,26.73,14.57,52.65,1003.70,2043.00,1457.58,1520.64,1714.90,599.93,595.48,25.10,0000 0000 0000 0000 000000
2017-01-27 08:39:14,0.25,8.88,0.00,19.47,23.09,26.75,14.59,52.74,1004.01,2042.98,1455.84,1519.43,1713.41,599.91,595.63,25.15,0000 0000 0000 0000 000000
2017-01-27 08:44:15,0.24,8.90,0.00,19.50,23.09,26.74,14.54,52.55,1004.40,2042.96,1454.23,1518.16,1712.00,599.95,595.88,25.20,0000 0000 0000 0000 000000
2017-01-27 08:49:16,0.29,8.91,0.00,19.52,23.10,26.76,14.63,52.68,1004.43,2042.98,1452.52,1516.89,1710.52,599.87,595.76,25.25,0000 0000 0000 0000 000000
2017-01-27 08:54:17,0.27,8.92,0.00,19.54,23.11,26.75,14.61,52.71,1004.56,2042.97,1450.80,1515.70,1709.04,600.02,595.88,25.30,0000 0000 0000 0000 000000
2017-01-27 08:59:18,0.29,8.94,0.00,19.56,23.12,26.72,14.63,52.93,1004.45,2042.96,1448.93,1514.40,1707.51,600.03,595.92,25.35,0000 0000 0000 0000 000000
2017-01-27 09:04:20,0.25,8.95,0.00,19.55,23.12,26.73,14.57,52.83,1004.41,2042.90,1447.12,1513.00,1705.83,600.00,595.83,25.40,0000 0000 0000 0000 000000
2017-01-27 09:09:21,0.28,8.97,0.00,19.57,23.12,26.77,14.66,53.08,1004.24,2042.89,1445.34,1511.76,1704.45,600.05,595.71,25.45,0000 0000 0000 0000 000000
2017-01-27 09:14:22,0.28,8.98,0.00,19.56,23.14,26.77,14.62,52.98,1004.24,2042.78,1443.61,1510.50,1702.85,600.15,595.87,25.50,0000 0000 0000 0000 000000
2017-01-27 09:19:23,0.24,8.99,0.00,19.57,23.14,26.82,14.61,52.97,1004.40,2042.74,1441.90,1509.29,1701.46,600.00,595.93,25.55,0000 0000 0000 0000 000000
2017-01-27 09:24:25,0.21,9.01,0.00,19.58,23.14,26.81,14.58,52.84,1004.41,2042.56,1440.19,1508.07,1699.96,600.05,595.81,25.60,0000 0000 0000 0000 000000
2017-01-27 09:29:26,0.26,9.02,0.00,19.60,23.15,26.83,14.57,52.80,1004.39,2042.25,1438.43,1506.85,1698.54,599.92,595.60,25.65,0000 0000 0000 0000 000000
2017-01-27 09:34:28,0.31,9.03,0.00,19.60,23.16,26.87,14.65,53.13,1004.01,2042.30,1436.67,1505.61,1697.08,600.07,595.52,25.70,0000 0000 0000 0000 000000
2017-01-27 09:39:29,0.26,9.05,0.00,19.62,23.17,26.84,14.70,53.17,1003.91,2042.24,1434.81,1504.39,1695.55,599.95,595.38,25.75,0000 0000 0000 0000 000000
2017-01-27 09:44:30,0.29,9.06,0.00,19.62,23.17,26.81,14.60,53.28,1003.50,2042.12,1432.87,1502.98,1693.92,599.58,594.85,25.80,0000 0000 0000 0000 000000
2017-01-27 09:49:32,0.30,9.08,0.00,19.63,23.17,26.86,14.53,53.48,1003.27,2042.08,1430.88,1501.56,1692.33,599.74,594.67,25.85,0000 0000 0000 0000 000000
2017-01-27 09:54:33,0.32,9.09,0.00,19.64,23.19,26.87,14.63,53.61,1003.25,2042.04,1428.81,1500.12,1690.60,599.99,595.01,25.90,0000 0000 0000 0000 000000
2017-01-27 09:59:35,0.34,9.11,0.00,19.63,23.19,26.88,14.63,53.61,1003.44,2042.14,1426.83,1498.68,1688.87,600.06,595.24,25.95,0000 0000 0000 0000 000000
2017-01-27 10:04:36,0.25,9.12,0.00,19.61,23.19,26.88,14.64,53.63,1003.51,2042.08,1425.09,1497.43,1687.35,600.03,595.20,26.00,0000 0000 0000 0000 000000
2017-01-27 10:09:38,0.27,9.14,0.00,19.60,23.19,26.87,14.63,53.56,1003.75,2042.04,1423.45,1496.12,1685.74,600.21,595.44,26.05,0000 0000 0000 0000 000000
2017-01-27 10:14:39,0.28,9.15,0.00,19.59,23.19,26.82,14.63,53.65,1003.89,2042.06,1421.58,1494.98,1684.24,600.04,595.45,26.10,0000 0000 0000 0000 000000
2017-01-27 10:19:40,0.32,9.17,0.00,19.60,23.20,26.86,14.65,53.46,1004.09,2042.02,1419.68,1493.60,1682.57,599.96,595.53,26.15,0000 0000 0000 0000 000000
2017-01-27 10:24:42,0.25,9.18,0.00,19.58,23.20,26.82,14.65,53.25,1004.40,2042.02,1418.05,1492.28,1680.98,600.24,595.93,26.20,0000 0000 0000 0000 000000
2017-01-27 10:29:43,0.28,9.19,0.00,19.57,23.20,26.85,14.59,52.93,1004.44,2042.03,1416.45,1491.03,1679.52,600.05,595.69,26.25,0000 0000 0000 0000 000000
2017-01-27 10:34:44,0.27,9.21,0.00,19.57,23.21,26.83,14.57,52.98,1004.51,2042.01,1414.79,1489.78,1678.11,600.17,596.02,26.30,0000 0000 0000 0000 000000
2017-01-27 10:39:46,0.27,9.22,0.00,19.59,23.22,26.88,14.63,53.13,1004.69,2042.02,1413.11,1488.63,1676.71,600.11,596.03,26.35,0000 0000 0000 0000 000000
2017-01-27 10:44:47,0.29,9.23,0.00,19.60,23.22,26.88,14.63,53.34,1004.72,2042.03,1411.25,1487.41,1675.21,600.10,595.98,26.40,0000 0000 0000 0000 000000
2017-01-27 10:49:48,0.29,9.25,0.00,19.60,23.22,26.86,14.62,53.36,1004.51,2042.01,1409.35,1486.01,1673.61,599.99,595.83,26.45,0000 0000 0000 0000 000000
2017-01-27 10:54:50,0.29,9.27,0.00,19.60,23.22,26.84,14.56,53.20,1004.41,2042.01,1407.69,1484.71,1672.07,599.83,595.60,26.50,0000 0000 0000 0000 000000
2017-01-27 10:59:51,0.28,9.28,0.00,19.61,23.22,26.87,14.62,52.97,1004.38,2042.01,1405.91,1483.51,1670.57,599.81,595.49,26.55,0000 0000 0000 0000 000000
2017-01-27 11:04:52,0.29,9.30,0.00,19.62,23.24,26.83,14.60,53.06,1004.04,2042.00,1404.16,1482.05,1669.02,599.71,595.24,26.60,0000 0000 0000 0000 000000
2017-01-27 11:09:53,0.31,9.31,0.00,19.63,23.24,26.91,14.54,53.34,1004.00,2042.00,1402.33,1480.62,1667.42,599.93,595.45,26.65,0000 0000 0000 0000 000000
2017-01-27 11:14:55,0.28,9.33,0.00,19.62,23.24,26.91,14.63,53.07,1004.12,2042.00,1400.66,1479.35,1665.87,599.76,595.27,26.70,0000 0000 0000 0000 000000
2017-01-27 11:19:56,0.28,9.34,0.00,19.63,23.24,26.90,14.60,52.98,1004.35,2042.00,1398.93,1478.01,1664.43,600.07,595.69,26.75,0000 0000 0000 0000 000000
2017-01-27 11:24:58,0.28,9.36,0.00,19.65,23.25,26.89,14.60,53.00,1004.42,2042.00,1397.26,1476.80,1662.93,599.77,595.35,26.80,0000 0000 0000 0000 000000
2017-01-27 11:29:59,0.29,9.37,0.00,19.68,23.25,26.91,14.61,53.17,1004.43,2042.00,1395.56,1475.61,1661.56,599.85,595.25,26.85,0000 0000 0000 0000 000000
2017-01-27 11:35:00,0.25,9.38,0.00,19.69,23.26,26.96,14.60,53.20,1004.41,2042.00,1393.93,1474.43,1660.24,599.74,595.39,26.91,0000 0000 0000 0000 000000
2017-01-27 11:40:02,0.26,9.40,0.00,19.70,23.27,26.94,14.57,53.08,1004.40,2042.00,1392.32,1473.36,1658.79,599.86,595.38,26.96,0000 0000 0000 0000 000000
2017-01-27 11:45:03,0.27,9.41,0.00,19.72,23.27,26.97,14.62,53.21,1004.35,2041.99,1390.62,1472.13,1657.39,599.85,595.28,27.01,0000 0000 0000 0000 000000
2017-01-27 11:50:05,0.26,9.43,0.00,19.73,23.27,26.92,14.64,53.19,1004.06,2041.99,1388.90,1471.00,1655.94,600.15,595.38,27.06,0000 0000 0000 0000 000000
2017-01-27 11:55:06,0.26,9.44,0.00,19.74,23.27,26.92,14.66,53.38,1003.92,2041.97,1387.40,1469.87,1654.59,600.28,595.47,27.11,0000 0000 0000 0000 000000
2017-01-27 12:00:08,0.28,9.45,0.00,19.76,23.29,26.96,14.65,53.53,1003.92,2041.98,1385.73,1468.74,1653.28,599.77,594.96,27.16,0000 0000 0000 0000 000000
2017-01-27 12:05:09,0.26,9.46,0.00,19.77,23.29,26.95,14.59,53.38,1003.92,2041.99,1384.17,1467.60,1651.85,600.26,595.26,27.21,0000 0000 0000 0000 000000
2017-01-27 12:10:10,0.27,9.48,0.00,19.77,23.29,26.97,14.53,53.56,1003.69,2041.98,1382.49,1466.50,1650.52,599.89,594.86,27.26,0000 0000 0000 0000 000000
2017-01-27 12:15:11,0.29,9.49,0.00,19.76,23.29,26.95,14.57,53.58,1003.44,2041.98,1380.67,1465.20,1648.98,600.13,594.95,27.31,0000 0000 0000 0000 000000
2017-01-27 12:20:13,0.30,9.51,0.00,19.74,23.30,26.95,14.59,53.95,1003.11,2041.99,1378.75,1463.96,1647.48,600.25,594.93,27.36,0000 0000 0000 0000 000000
2017-01-27 12:25:14,0.28,9.52,0.00,19.73,23.31,26.96,14.52,53.90,1002.94,2041.98,1377.12,1462.66,1646.06,599.66,594.32,27.41,0000 0000 0000 0000 000000
2017-01-27 12:30:15,0.37,9.54,0.00,19.71,23.32,26.94,14.59,54.10,1002.94,2041.99,1374.86,1461.29,1644.43,599.86,594.48,27.46,0000 0000 0000 0000 000000
2017-01-27 12:35:16,0.31,9.56,0.00,19.70,23.32,26.93,14.53,54.00,1002.96,2041.98,1373.01,1459.83,1642.70,599.59,594.24,27.51,0000 0000 0000 0000 000000
2017-01-27 12:40:18,0.26,9.57,0.00,19.67,23.32,26.93,14.54,53.63,1003.24,2041.97,1371.55,1458.64,1641.21,599.51,594.41,27.56,0000 0000 0000 0000 000000
2017-01-27 12:45:19,0.30,9.59,0.00,19.64,23.32,26.94,14.58,53.52,1003.46,2041.98,1369.86,1457.45,1639.76,599.77,594.79,27.61,0000 0000 0000 0000 000000
2017-01-27 12:50:21,0.24,9.60,0.00,19.61,23.32,27.01,14.60,53.18,1003.74,2041.98,1368.38,1456.32,1638.45,599.90,595.18,27.66,0000 0000 0000 0000 000000
2017-01-27 12:55:22,0.23,9.61,0.00,19.60,23.32,27.02,14.65,53.02,1003.89,2041.95,1366.83,1455.21,1637.13,600.11,595.48,27.71,0000 0000 0000 0000 000000